Location: Althorst
(53.6379°N, 10.7715°E)
Time: 16:02:18
(UTC+00:00)

Cosmos 1900 - Pass Details

Date: 10 December 2019
Orbit: 692 x 730 km, 66.1° (Epoch: 28 January)

Event Time Altitude Azimuth Distance (km) Brightness Sun altitude
Rises 15:40:02 0° 317° (NW) 3,089 7.8 -6.1°
Reaches altitude 10° 15:42:25 10° 321° (NW) 2,164 7.0 -6.4°
Maximum altitude 15:47:18 64° 43° (NE) 770 4.3 -7.0°
Drops below altitude 10° 15:52:09 10° 126° (SE) 2,147 6.6 -7.6°
Sets 15:54:30 0° 129° (SE) 3,061 7.4 -7.9°
